Location: Unspecified
(0.0000°N, 0.0000°E)
Time: 09:26:51
(UTC+00:00)

Vanguard 2 - Pass Details

Date: 27 October 2021
Orbit: 554 x 2936 km, 32.9° (Epoch: 06 December)

Event Time Altitude Azimuth Distance (km) Brightness Sun altitude
Rises 17:39:04 0° 215° (SW) 5,286 12.6 1.2°
Reaches altitude 10° 17:42:54 10° 204° (SSW) 4,623 12.1 0.2°
Maximum altitude 17:54:36 31° 147° (SSE) 3,935 11.0 -2.6°
Drops below altitude 10° 18:09:01 10° 92° (E) 5,764 11.3 -6.1°
Enters shadow 18:11:12 - 88° (E) 6,153 11.5 -6.7°
Sets 18:14:27 0° 83° (E) 6,748 - -7.5°
